Regional Weather Roundup
Issued by NWS

Home | Current Version | Previous Version | Graphics & Text | Print | Product List | Glossary On
Versions: 1 2 3 4 5 6 7 8 9 10 11 12 13 14 15 16 17 18 19 20 21 22 23 24 25 26 27 28 29 30 31 32 33 34 35 36 37 38 39 40 41 42 43 44 45 46 47 48 49 50
014
ASUS45 KSLC 200210
RWRUT

UTAH REGIONAL WEATHER ROUNDUP
NATIONAL WEATHER SERVICE SALT LAKE CITY UT
800 PM MDT TUE SEP 19 2017

UTZ001>011-023>025-200300-

NORTHERN UTAH

CITY           SKY/WX    TMP DP  RH WIND       PRES   REMARKS
BRIGHAM CITY   CLEAR     51  38  62 N8        29.93R
HILL AFB       CLEAR     54  36  50 N3        29.92R
LOGAN          PTCLDY    46  39  76 N5        29.94R
OGDEN          CLEAR     54  38  54 N5        29.90S
SALT LAKE CITY PTCLDY    59  34  39 N5        29.90S
TOOELE VALLEY  CLEAR     54  36  50 CALM      29.91R
WENDOVER       CLEAR     62  19  19 NW16      29.87R
HEBER CITY     MOCLDY    46  37  71 CALM      29.94S
WEST JORDAN    CLEAR     54  40  60 NW5       29.92R

$$

UTZ011>015-024>027-200300-

CENTRAL/NORTHEAST UTAH

CITY           SKY/WX    TMP DP  RH WIND       PRES   REMARKS
PROVO AIRPORT  PTCLDY    56  39  53 N6        29.91R
MOAB/CANYONLAN PTCLDY    76  36  23 SW10      29.70R
DELTA          PTCLDY    61  28  29 N12       29.87R
PRICE          CLEAR     59  33  37 NW20G28   29.87R
ROOSEVELT      CLEAR     59  30  33 W17G24    29.88R
VERNAL         CLOUDY    53  37  54 E13       29.89R

$$

UTZ013>016-019>022-027-200300-

SOUTHERN UTAH

CITY           SKY/WX    TMP DP  RH WIND       PRES   REMARKS
BRYCE CANYON   CLEAR     58  32  37 SW14      30.02R
CEDAR CITY     CLEAR     66  35  31 SW17G23   29.91R
MILFORD        PTCLDY    66  35  31 NW10      29.84R
ST GEORGE      MOCLDY    82  38  20 W5        29.77R
HANKSVILLE     CLEAR     77  30  18 W16G23    29.74R
BLANDING         N/A     68  28  22 SW3       29.96R

$$

REGIONAL REPORTS     COLORADO/ARIZONA

CITY           SKY/WX    TMP DP  RH WIND       PRES   REMARKS
CRAIG, CO      LGT RAIN  41  36  82 S3        30.03R
GRAND JUNCTION MOCLDY    76  33  21 SW8       29.74S
RIFLE, CO      MOCLDY    61  35  37 NW20G29   29.81R
MONTROSE, CO   CLEAR     69  25  19 SW9       29.86R
CORTEZ, CO     CLEAR     63  29  27 SW8       29.92R
PAGE, AZ       CLEAR     81  33  17 W8G21     29.79R
GRAND CANYON   CLEAR     64  28  25 SW15      30.04R
KINGMAN, AZ    CLEAR     77  40  26 SW16      29.86R
FLAGSTAFF, AZ  PTCLDY    62  26  25 SW15G28   30.09S

$$

REGIONAL REPORTS    NEVADA/IDAHO/WYOMING

CITY           SKY/WX    TMP DP  RH WIND       PRES   REMARKS
LAS VEGAS, NV  PTCLDY    86  41  20 S8        29.70S
ELY, NY        CLEAR     59  24  26 NW12      29.94R
ELKO, NV       CLEAR     55  18  23 W7        29.93S
POCATELLO, ID  PTCLDY    46  37  71 SW12      29.93R
BURLEY, ID     CLEAR     45  37  73 SW8       29.91S
FORT BRIDGER,    N/A     40  32  74 W9        30.00S WCI  34
EVANSTON, WY   PTCLDY    40  29  64 W10       29.99R WCI  33
ROCK SPRINGS,  CLOUDY    40  31  70 W13       29.96R WCI  32
KEMMERER, WY     N/A     34  32  93 NW8       29.98R WCI  27

$$




USA.gov is the U.S. government's official web portal to all federal, state and local government web resources and services.